Weather in Kazulino

Russia / Smolensk Oblast     55°20′06″N   33°32′09″E
temp.,
°C
wind,
m/s
gust,
m/s
humid.,
%
clouds,
%
prec.,
mm/h
press.,
hPa
HPBL,
m
9 march, tue
tue900:00−13nnw359571 0.0 1014104
03:00−14nnw239681 0.1 101661
06:00−16nnw239779 0.0 101757
09:00−15nnw369451 0.0 1018257
12:00−10n358353 0.0 1019692
15:00−9nnw357976 0.1 10201003
18:00−10nw2486100 0.1 102199
21:00−14nnw239084 0.1 102321
10 march, wed
wed1000:00−16n119363 0.0 102420
03:00−16ene119071 0.0 102520
06:00−15e2396100 0.3 1025102
09:00−14e3595100 1.1 1026259
12:00−13e4692100 0.6 1027403
15:00−12ene4687100 0.8 1027463
18:00−15ene368763 0.0 1028166
21:00−19e349431 0.0 103172
11 march, thu
thu1100:00−21ese23939 0.0 103236
03:00−22ese23938 0.0 103334
06:00−23se33930 0.0 103338
09:00−20se36860 0.0 1034176
12:00−14sse35780 0.0 1032332
15:00−10sse46720 0.0 1031541
18:00−12s35820 0.0 1030112
21:00−15sse49900 0.0 1030162
12 march, fri
fri1200:00−16s49950 0.0 1030173
03:00−17sse499826 0.0 1029190
06:00−17sse5109885 0.0 1028236
09:00−14s5119592 0.0 1026340
12:00−8s7148499 0.0 1024590
15:00−5s9147999 0.0 10221006
18:00−6s81680100 0.0 1020941
21:00−7s91792100 0.5 1019952
13 march, sat
sat1300:00−7s91692100 0.9 1017933
03:00−6s81594100 2.3 1015891
06:00−5s81495100 1.6 1014632
09:00−2ssw61196100 2.7 1015483
12:00+1ssw5109999 0.3 1015573
15:000ssw6119699 0.3 1015645
18:00+1s61296100 0.0 1014560
21:00+1s61294100 0.1 1014618